Time,TemperatureF,DewpointF,PressureIn,WindDirection,WindDirectionDegrees,WindSpeedMPH,WindSpeedGustMPH,Humidity,HourlyPrecipIn,Conditions,Clouds,dailyrainin,SoftwareType,DateUTC
2013-01-01 00:02:00,6.0,3.0,-100.00,SSW,205,4.0,6.0,88,0.00,,,0.00,,2013-01-01 06:02:00,
2013-01-01 00:12:00,6.0,3.0,-100.00,South,185,5.0,6.0,88,0.00,,,0.00,,2013-01-01 06:12:00,
2013-01-01 00:22:00,5.0,3.0,-100.00,SSW,200,6.0,7.0,88,0.00,,,0.00,,2013-01-01 06:22:00,
2013-01-01 00:32:00,5.0,3.0,-100.00,SSW,195,4.0,6.0,88,0.00,,,0.00,,2013-01-01 06:32:00,
2013-01-01 00:42:00,5.0,3.0,-100.00,SSW,200,3.0,3.0,88,0.00,,,0.00,,2013-01-01 06:42:00,
2013-01-01 00:52:00,5.0,3.0,-100.00,South,190,4.0,6.0,88,0.00,,,0.00,,2013-01-01 06:52:00,
2013-01-01 01:02:00,5.0,3.0,-100.00,SSE,160,3.0,6.0,88,0.00,,,0.00,,2013-01-01 07:02:00,
2013-01-01 01:12:00,5.0,1.0,-100.00,South,175,3.0,4.0,88,0.00,,,0.00,,2013-01-01 07:12:00,
2013-01-01 01:22:00,5.0,3.0,-100.00,South,185,4.0,5.0,88,0.00,,,0.00,,2013-01-01 07:22:00,
2013-01-01 01:32:00,5.0,3.0,-100.00,SSE,155,3.0,6.0,88,0.00,,,0.00,,2013-01-01 07:32:00,
2013-01-01 01:42:00,5.0,3.0,-100.00,South,170,4.0,6.0,88,0.00,,,0.00,,2013-01-01 07:42:00,
2013-01-01 01:52:00,6.0,3.0,-100.00,SSW,195,4.0,5.0,88,0.00,,,0.00,,2013-01-01 07:52:00,
2013-01-01 02:02:00,5.0,3.0,-100.00,South,185,3.0,4.0,88,0.00,,,0.00,,2013-01-01 08:02:00,
2013-01-01 02:11:00,6.0,3.0,-100.00,SW,215,2.0,4.0,88,0.00,,,0.00,,2013-01-01 08:11:00,
2013-01-01 02:22:00,6.0,3.0,-100.00,SW,220,4.0,6.0,88,0.00,,,0.00,,2013-01-01 08:22:00,
2013-01-01 02:32:00,6.0,3.0,-100.00,SW,215,5.0,6.0,88,0.00,,,0.00,,2013-01-01 08:32:00,
2013-01-01 02:42:00,6.0,3.0,-100.00,SSW,205,4.0,6.0,88,0.00,,,0.00,,2013-01-01 08:42:00,
2013-01-01 02:53:00,6.0,3.0,-100.00,SSW,210,4.0,4.0,88,0.00,,,0.00,,2013-01-01 08:53:00,
2013-01-01 03:02:00,6.0,3.0,-100.00,SSW,210,4.0,5.0,88,0.00,,,0.00,,2013-01-01 09:02:00,
2013-01-01 03:12:00,6.0,3.0,-100.00,SSW,200,4.0,4.0,88,0.00,,,0.00,,2013-01-01 09:12:00,
2013-01-01 03:22:00,6.0,3.0,-100.00,SSW,205,4.0,6.0,88,0.00,,,0.00,,2013-01-01 09:22:00,
2013-01-01 03:32:00,6.0,3.0,-100.00,South,190,4.0,6.0,87,0.00,,,0.00,,2013-01-01 09:32:00,
2013-01-01 03:42:00,6.0,3.0,-100.00,SSW,205,4.0,6.0,87,0.00,,,0.00,,2013-01-01 09:42:00,
2013-01-01 03:52:00,7.0,3.0,-100.00,SSW,200,6.0,7.0,87,0.00,,,0.00,,2013-01-01 09:52:00,
2013-01-01 04:02:00,7.0,3.0,-100.00,SSW,205,5.0,7.0,87,0.00,,,0.00,,2013-01-01 10:02:00,
2013-01-01 04:12:00,7.0,5.0,-100.00,SSW,205,5.0,6.0,87,0.00,,,0.00,,2013-01-01 10:12:00,
2013-01-01 04:22:00,7.0,5.0,-100.00,SSW,205,6.0,8.0,87,0.00,,,0.00,,2013-01-01 10:22:00,
2013-01-01 04:33:00,8.0,5.0,-100.00,SSW,205,7.0,9.0,87,0.00,,,0.00,,2013-01-01 10:33:00,
2013-01-01 04:42:00,8.0,5.0,-100.00,SSW,205,7.0,8.0,87,0.00,,,0.00,,2013-01-01 10:42:00,
2013-01-01 04:52:00,8.0,5.0,-100.00,SSW,210,7.0,10.0,87,0.00,,,0.00,,2013-01-01 10:52:00,
2013-01-01 05:02:00,8.0,5.0,-100.00,SSW,195,9.0,9.0,87,0.00,,,0.00,,2013-01-01 11:02:00,
2013-01-01 05:12:00,8.0,5.0,-100.00,SSW,200,7.0,9.0,87,0.00,,,0.00,,2013-01-01 11:12:00,
2013-01-01 05:22:00,8.0,5.0,-100.00,SSW,210,7.0,7.0,86,0.00,,,0.00,,2013-01-01 11:22:00,
2013-01-01 05:32:00,8.0,5.0,-100.00,SSW,210,6.0,8.0,86,0.00,,,0.00,,2013-01-01 11:32:00,
2013-01-01 05:42:00,8.0,5.0,-100.00,SW,215,6.0,6.0,86,0.00,,,0.00,,2013-01-01 11:42:00,
2013-01-01 05:52:00,8.0,5.0,-100.00,SW,215,6.0,8.0,86,0.00,,,0.00,,2013-01-01 11:52:00,
2013-01-01 06:02:00,9.0,5.0,-100.00,SW,220,6.0,7.0,86,0.00,,,0.00,,2013-01-01 12:02:00,
2013-01-01 06:12:00,9.0,5.0,-100.00,SW,225,6.0,7.0,86,0.00,,,0.00,,2013-01-01 12:12:00,
2013-01-01 06:22:00,9.0,5.0,-100.00,SW,215,7.0,7.0,86,0.00,,,0.00,,2013-01-01 12:22:00,
2013-01-01 06:32:00,9.0,5.0,-100.00,SW,225,6.0,7.0,86,0.00,,,0.00,,2013-01-01 12:32:00,
2013-01-01 06:42:00,9.0,5.0,-100.00,SW,225,5.0,7.0,86,0.00,,,0.00,,2013-01-01 12:42:00,
2013-01-01 06:52:00,9.0,7.0,-100.00,SW,225,7.0,9.0,86,0.00,,,0.00,,2013-01-01 12:52:00,
2013-01-01 07:02:00,9.0,7.0,-100.00,SW,220,7.0,9.0,86,0.00,,,0.00,,2013-01-01 13:02:00,
2013-01-01 07:12:00,9.0,7.0,-100.00,SW,235,6.0,9.0,86,0.00,,,0.00,,2013-01-01 13:12:00,
2013-01-01 07:22:00,9.0,7.0,-100.00,SW,220,8.0,9.0,86,0.00,,,0.00,,2013-01-01 13:22:00,
2013-01-01 07:32:00,10.0,7.0,-100.00,SW,235,8.0,10.0,86,0.00,,,0.00,,2013-01-01 13:32:00,
2013-01-01 07:42:00,10.0,7.0,-100.00,SW,230,8.0,10.0,87,0.00,,,0.00,,2013-01-01 13:42:00,
2013-01-01 07:52:00,10.0,7.0,-100.00,WSW,240,6.0,9.0,87,0.00,,,0.00,,2013-01-01 13:52:00,
2013-01-01 08:02:00,10.0,7.0,-100.00,SW,225,7.0,8.0,87,0.00,,,0.00,,2013-01-01 14:02:00,
2013-01-01 08:12:00,10.0,7.0,-100.00,SW,235,6.0,8.0,88,0.00,,,0.00,,2013-01-01 14:12:00,
2013-01-01 08:22:00,10.0,7.0,-100.00,SW,225,6.0,7.0,88,0.00,,,0.00,,2013-01-01 14:22:00,
2013-01-01 08:32:00,11.0,9.0,-100.00,SW,225,5.0,7.0,88,0.00,,,0.00,,2013-01-01 14:32:00,
2013-01-01 08:42:00,11.0,9.0,-100.00,SW,215,4.0,5.0,88,0.00,,,0.00,,2013-01-01 14:42:00,
2013-01-01 08:53:00,11.0,9.0,-100.00,South,185,4.0,6.0,88,0.00,,,0.00,,2013-01-01 14:53:00,
2013-01-01 09:02:00,12.0,9.0,-100.00,South,185,2.0,3.0,88,0.00,,,0.00,,2013-01-01 15:02:00,
2013-01-01 09:12:00,12.0,9.0,-100.00,SSW,200,5.0,6.0,89,0.00,,,0.00,,2013-01-01 15:12:00,
2013-01-01 09:22:00,13.0,10.0,-100.00,SSW,200,4.0,6.0,89,0.00,,,0.00,,2013-01-01 15:22:00,
2013-01-01 09:33:00,13.0,10.0,-100.00,SSW,205,6.0,6.0,89,0.00,,,0.00,,2013-01-01 15:33:00,
2013-01-01 09:42:00,13.0,10.0,-100.00,South,185,2.0,6.0,89,0.00,,,0.00,,2013-01-01 15:42:00,
2013-01-01 09:53:00,13.0,10.0,-100.00,South,190,4.0,4.0,89,0.00,,,0.00,,2013-01-01 15:53:00,
2013-01-01 10:02:00,14.0,12.0,-100.00,SSW,195,3.0,5.0,89,0.00,,,0.00,,2013-01-01 16:02:00,
2013-01-01 10:12:00,14.0,12.0,-100.00,SSW,200,5.0,7.0,89,0.00,,,0.00,,2013-01-01 16:12:00,
2013-01-01 10:22:00,15.0,12.0,-100.00,SSW,200,6.0,7.0,89,0.00,,,0.00,,2013-01-01 16:22:00,
2013-01-01 10:32:00,15.0,12.0,-100.00,SSW,195,2.0,6.0,89,0.00,,,0.00,,2013-01-01 16:32:00,
2013-01-01 10:42:00,15.0,12.0,-100.00,South,185,4.0,4.0,89,0.00,,,0.00,,2013-01-01 16:42:00,
2013-01-01 10:52:00,14.0,12.0,-100.00,South,175,6.0,6.0,89,0.00,,,0.00,,2013-01-01 16:52:00,
2013-01-01 11:02:00,14.0,12.0,-100.00,South,175,6.0,7.0,89,0.00,,,0.00,,2013-01-01 17:02:00,
2013-01-01 11:12:00,14.0,12.0,-100.00,South,180,7.0,7.0,89,0.00,,,0.00,,2013-01-01 17:12:00,
2013-01-01 11:22:00,16.0,14.0,-100.00,SSW,205,7.0,8.0,89,0.00,,,0.00,,2013-01-01 17:22:00,
2013-01-01 11:33:00,16.0,14.0,-100.00,SSW,205,9.0,9.0,89,0.00,,,0.00,,2013-01-01 17:33:00,
2013-01-01 11:42:00,16.0,14.0,-100.00,SSW,210,9.0,10.0,88,0.00,,,0.00,,2013-01-01 17:42:00,
2013-01-01 11:52:00,16.0,12.0,-100.00,SSW,195,10.0,12.0,88,0.00,,,0.00,,2013-01-01 17:52:00,
2013-01-01 12:03:00,16.0,12.0,-100.00,SSW,195,8.0,10.0,88,0.00,,,0.00,,2013-01-01 18:03:00,
2013-01-01 12:12:00,17.0,14.0,-100.00,SW,215,7.0,10.0,88,0.00,,,0.00,,2013-01-01 18:12:00,
2013-01-01 12:22:00,18.0,16.0,-100.00,SW,235,6.0,9.0,88,0.00,,,0.00,,2013-01-01 18:22:00,
2013-01-01 12:33:00,18.0,16.0,-100.00,SSW,210,9.0,12.0,88,0.00,,,0.00,,2013-01-01 18:33:00,
2013-01-01 12:42:00,18.0,16.0,-100.00,SW,220,9.0,12.0,89,0.00,,,0.00,,2013-01-01 18:42:00,
2013-01-01 12:52:00,18.0,16.0,-100.00,SW,235,9.0,11.0,89,0.00,,,0.00,,2013-01-01 18:52:00,
2013-01-01 13:02:00,18.0,16.0,-100.00,WSW,240,8.0,11.0,90,0.00,,,0.00,,2013-01-01 19:02:00,
2013-01-01 13:12:00,18.0,16.0,-100.00,WSW,240,7.0,11.0,90,0.00,,,0.00,,2013-01-01 19:12:00,
2013-01-01 13:22:00,18.0,16.0,-100.00,SW,220,14.0,17.0,91,0.00,,,0.00,,2013-01-01 19:22:00,
2013-01-01 13:32:00,18.0,18.0,-100.00,SSW,210,16.0,19.0,93,0.00,,,0.00,,2013-01-01 19:32:00,
2013-01-01 13:42:00,19.0,18.0,-100.00,SW,215,16.0,19.0,94,0.00,,,0.00,,2013-01-01 19:42:00,
2013-01-01 13:52:00,19.0,18.0,-100.00,SW,215,16.0,21.0,95,0.00,,,0.00,,2013-01-01 19:52:00,
2013-01-01 14:02:00,19.0,18.0,-100.00,SW,220,16.0,20.0,96,0.00,,,0.00,,2013-01-01 20:02:00,
2013-01-01 14:12:00,19.0,18.0,-100.00,SW,215,17.0,19.0,96,0.00,,,0.00,,2013-01-01 20:12:00,
2013-01-01 14:22:00,19.0,18.0,-100.00,SW,215,16.0,20.0,96,0.00,,,0.00,,2013-01-01 20:22:00,
2013-01-01 14:32:00,19.0,19.0,-100.00,SW,220,16.0,19.0,97,0.00,,,0.00,,2013-01-01 20:32:00,
2013-01-01 14:42:00,20.0,19.0,-100.00,SW,225,12.0,18.0,97,0.00,,,0.00,,2013-01-01 20:42:00,
2013-01-01 14:52:00,20.0,19.0,-100.00,SW,215,14.0,16.0,97,0.00,,,0.00,,2013-01-01 20:52:00,
2013-01-01 15:03:00,20.0,19.0,-100.00,SW,220,13.0,17.0,97,0.00,,,0.00,,2013-01-01 21:03:00,
2013-01-01 15:12:00,20.0,19.0,-100.00,SW,215,16.0,17.0,97,0.00,,,0.00,,2013-01-01 21:12:00,
2013-01-01 15:22:00,20.0,19.0,-100.00,SW,220,14.0,16.0,96,0.00,,,0.00,,2013-01-01 21:22:00,
2013-01-01 15:32:00,20.0,19.0,-100.00,SW,225,14.0,17.0,96,0.00,,,0.00,,2013-01-01 21:32:00,
2013-01-01 15:42:00,20.0,19.0,-100.00,SW,225,13.0,17.0,96,0.00,,,0.00,,2013-01-01 21:42:00,
2013-01-01 15:52:00,21.0,19.0,-100.00,SW,225,12.0,16.0,96,0.00,,,0.00,,2013-01-01 21:52:00,
2013-01-01 16:02:00,20.0,19.0,-100.00,SW,225,12.0,16.0,96,0.00,,,0.00,,2013-01-01 22:02:00,
2013-01-01 16:12:00,20.0,19.0,-100.00,SW,225,14.0,17.0,96,0.00,,,0.00,,2013-01-01 22:12:00,
2013-01-01 16:22:00,20.0,19.0,-100.00,SW,225,15.0,17.0,96,0.00,,,0.00,,2013-01-01 22:22:00,
2013-01-01 16:33:00,20.0,19.0,-100.00,SW,225,14.0,18.0,96,0.00,,,0.00,,2013-01-01 22:33:00,
2013-01-01 16:42:00,20.0,19.0,-100.00,SW,230,12.0,18.0,97,0.00,,,0.00,,2013-01-01 22:42:00,
2013-01-01 16:52:00,20.0,19.0,-100.00,SW,235,14.0,16.0,97,0.00,,,0.00,,2013-01-01 22:52:00,
2013-01-01 17:02:00,20.0,19.0,-100.00,SW,235,12.0,17.0,97,0.00,,,0.00,,2013-01-01 23:02:00,
2013-01-01 17:12:00,20.0,19.0,-100.00,WSW,240,13.0,16.0,97,0.00,,,0.00,,2013-01-01 23:12:00,
2013-01-01 17:22:00,20.0,19.0,-100.00,SW,230,11.0,14.0,98,0.00,,,0.00,,2013-01-01 23:22:00,
2013-01-01 17:32:00,20.0,19.0,-100.00,SW,225,12.0,14.0,98,0.00,,,0.00,,2013-01-01 23:32:00,
2013-01-01 17:42:00,20.0,19.0,-100.00,SW,220,13.0,16.0,98,0.00,,,0.00,,2013-01-01 23:42:00,
2013-01-01 17:52:00,19.0,19.0,-100.00,SSW,210,16.0,18.0,98,0.00,,,0.00,,2013-01-01 23:52:00,
2013-01-01 18:52:00,19.0,19.0,-100.00,SSW,210,13.0,16.0,99,0.00,,,0.00,,2013-01-02 00:52:00,
2013-01-01 19:02:00,20.0,19.0,-100.00,SW,220,11.0,13.0,99,0.00,,,0.00,,2013-01-02 01:02:00,
2013-01-01 19:12:00,20.0,19.0,-100.00,SW,215,11.0,13.0,99,0.00,,,0.00,,2013-01-02 01:12:00,
2013-01-01 19:22:00,20.0,19.0,-100.00,SW,215,12.0,14.0,99,0.00,,,0.00,,2013-01-02 01:22:00,
2013-01-01 19:32:00,20.0,19.0,-100.00,SW,215,12.0,16.0,99,0.00,,,0.00,,2013-01-02 01:32:00,
2013-01-01 19:42:00,20.0,19.0,-100.00,SSW,210,13.0,15.0,99,0.00,,,0.00,,2013-01-02 01:42:00,
2013-01-01 19:52:00,20.0,19.0,-100.00,SW,220,11.0,16.0,99,0.00,,,0.00,,2013-01-02 01:52:00,
2013-01-01 20:02:00,20.0,19.0,-100.00,SW,215,12.0,14.0,99,0.00,,,0.00,,2013-01-02 02:02:00,
2013-01-01 20:12:00,20.0,19.0,-100.00,SSW,210,11.0,15.0,99,0.00,,,0.00,,2013-01-02 02:12:00,
2013-01-01 20:22:00,20.0,19.0,-100.00,SW,220,12.0,17.0,99,0.00,,,0.00,,2013-01-02 02:22:00,
2013-01-01 20:32:00,20.0,19.0,-100.00,SW,225,11.0,17.0,99,0.00,,,0.00,,2013-01-02 02:32:00,
2013-01-01 20:42:00,20.0,19.0,-100.00,SW,225,11.0,15.0,99,0.00,,,0.00,,2013-01-02 02:42:00,
2013-01-01 20:52:00,20.0,19.0,-100.00,SW,225,10.0,15.0,99,0.00,,,0.00,,2013-01-02 02:52:00,
2013-01-01 21:02:00,20.0,19.0,-100.00,SW,225,9.0,13.0,99,0.00,,,0.00,,2013-01-02 03:02:00,
2013-01-01 21:12:00,19.0,19.0,-100.00,SW,220,10.0,12.0,99,0.00,,,0.00,,2013-01-02 03:12:00,
2013-01-01 21:42:00,18.0,18.0,-100.00,SSW,205,11.0,13.0,99,0.00,,,0.00,,2013-01-02 03:42:00,
2013-01-01 21:52:00,17.0,16.0,-100.00,SSW,195,9.0,11.0,99,0.00,,,0.00,,2013-01-02 03:52:00,
2013-01-01 22:12:00,14.0,14.0,-100.00,SSW,200,8.0,10.0,99,0.00,,,0.00,,2013-01-02 04:12:00,
2013-01-01 22:42:00,13.0,12.0,-100.00,SW,215,6.0,7.0,99,0.00,,,0.00,,2013-01-02 04:42:00,
2013-01-01 22:52:00,13.0,12.0,-100.00,SSW,210,7.0,9.0,99,0.00,,,0.00,,2013-01-02 04:52:00,
2013-01-01 23:03:00,12.0,12.0,-100.00,SSW,205,9.0,10.0,99,0.00,,,0.00,,2013-01-02 05:03:00,
2013-01-01 23:12:00,12.0,12.0,-100.00,SSW,205,9.0,10.0,99,0.00,,,0.00,,2013-01-02 05:12:00,
2013-01-01 23:33:00,11.0,10.0,-100.00,SSW,210,8.0,9.0,99,0.00,,,0.00,,2013-01-02 05:33:00,
2013-01-01 23:52:00,12.0,12.0,-100.00,SSW,205,7.0,9.0,99,0.00,,,0.00,,2013-01-02 05:52:00,